Location: Kearney
(40.6990°N, 99.0810°W)
Time: 03:54:40
(UTC-06:00)

SJ-7 - Pass Details

Date: 18 December 2017
Orbit: 558 x 603 km, 97.7° (Epoch: 22 January)

Event Time Altitude Azimuth Distance (km) Brightness Sun altitude
Rises 18:00:05 0° 169° (S) 2,741 8.0 -9.1°
Reaches altitude 10° 18:02:12 10° 170° (S) 1,845 7.2 -9.5°
Maximum altitude 18:06:12 80° 258° (WSW) 573 4.5 -10.2°
Drops below altitude 10° 18:10:12 10° 345° (NNW) 1,852 6.9 -10.9°
Sets 18:12:21 0° 347° (NNW) 2,752 7.8 -11.3°
